Terug naar catalogus

DMSP 5D-2 F13 DEB

ActiefSSO
NORAD 40464·DEBRIS·🇺🇸 United States

Gelanceerd Mar 24, 1995 vanaf Vandenberg Space Force Base

Loading…

Volgende Passages (komende 24 uur)

TLE

VersSource: Space-Track

Epoch: Sep 12, 2026, 00:26 UTC

1 40464U 95015BG  26255.01852030  .00001865  00000-0  10354-2 0  9992
2 40464  98.9364 181.1639 0081657  22.6167 337.8570 14.10723070587872

Volg DMSP 5D-2 F13 DEB in realtime met AllMySat

Download on the App Store